Weather History for KEZS - January, 2013

Change the Weather History Date:

Thursday, January 31, 2013

  Actual Average (KGRB) Record (KGRB)
Temperature  
Mean Temperature 11 °F 17 °F  
Max Temperature 17 °F 25 °F 49 °F (1993)
Min Temperature 5 °F 9 °F -26 °F (1899)
Degree Days  
Heating Degree Days 54 48  
Month to date heating degree days 1502  
Since 1 July heating degree days 4589  
Cooling Degree Days 0 0  
Month to date cooling degree days 0  
Year to date cooling degree days 0  
Moisture  
Dew Point 5 °F    
Average Humidity 68    
Maximum Humidity 79    
Minimum Humidity 58    
Precipitation  
Precipitation 0.00 in 0.03 in 0.70 in (1917)
Month to date precipitation 1.13  
Year to date precipitation 1.13  
Snow  
Snow 0.00 in 0.40 in 7.80 in (1917)
Month to date snowfall 13.0  
Since 1 July snowfall 30.3  
Snow Depth -    
Sea Level Pressure  
Sea Level Pressure 29.76 in    
Wind  
Wind Speed - (North)    
Max Wind Speed -    
Max Gust Speed -    
Visibility 10 miles    
Events Snow    
T = Trace of Precipitation, MM = Missing Value Source: NWS Daily Summary

Daily Weather History Graph

Daily Weather History Graph

Search for Another Location

Airport or City:

Trip Planner

Search our weather history database for the weather conditions in past years. The results will help you decide how hot, cold, wet, or windy it might be!

Date:

Astronomy

Jan. 31, 2013 Rise Set
Actual Time 7:14 AM CST 5:01 PM CST
Civil Twilight 6:43 AM CST 5:32 PM CST
Nautical Twilight 6:08 AM CST 6:08 PM CST
Astronomical Twilight 5:33 AM CST 6:42 PM CST
Moon 10:19 PM CST (1/31) 8:59 AM CST (1/31)
Length of Visible Light 10h 49m
Length of Day
9h 47m
Waning Gibbous, 79% of the Moon is Illuminated
Jan 31
Waning Gibbous
Feb 3
Last Quarter
Feb 10
New
Feb 17
First Quarter
Feb 25
Full

Hourly Weather History & Observations

Time (CST) Temp. Dew Point Humidity Pressure Visibility Wind Dir Wind Speed Gust Speed Precip Events Conditions
12:15 AM 17.6 °F 12.2 °F 79% 29.51 in 10.0 mi North - - N/A   Mostly Cloudy
12:35 AM 17.6 °F 12.2 °F 79% 29.51 in 7.0 mi North - - N/A   Mostly Cloudy
12:55 AM 17.6 °F 12.2 °F 79% 29.52 in 4.0 mi North - - N/A Snow Light Snow
1:15 AM 17.6 °F 12.2 °F 79% 29.53 in 5.0 mi North - - N/A Snow Light Snow
1:35 AM 17.6 °F 12.2 °F 79% 29.54 in 10.0 mi North - - N/A   Overcast
1:55 AM 17.6 °F 10.4 °F 73% 29.54 in 10.0 mi North - - N/A Snow Light Snow
2:15 AM 17.6 °F 10.4 °F 73% 29.56 in 7.0 mi North - - N/A Snow Light Snow
2:35 AM 17.6 °F 10.4 °F 73% 29.56 in 10.0 mi North - - N/A   Overcast
2:55 AM 17.6 °F 10.4 °F 73% 29.57 in 7.0 mi North - - N/A   Overcast
3:15 AM 17.6 °F 8.6 °F 68% 29.57 in 10.0 mi North - - N/A   Overcast
3:35 AM 17.6 °F 8.6 °F 68% 29.58 in 10.0 mi North - - N/A   Overcast
3:55 AM 15.8 °F 8.6 °F 73% 29.58 in 10.0 mi North - - N/A   Overcast
4:15 AM 15.8 °F 8.6 °F 73% 29.59 in 10.0 mi North - - N/A   Overcast
4:35 AM 14.0 °F 8.6 °F 79% 29.60 in 7.0 mi North - - N/A   Overcast
4:55 AM 14.0 °F 8.6 °F 79% 29.60 in 10.0 mi North - - N/A   Overcast
5:15 AM 14.0 °F 8.6 °F 79% 29.61 in 10.0 mi North - - N/A   Overcast
5:35 AM 14.0 °F 6.8 °F 73% 29.61 in 10.0 mi North - - N/A   Overcast
5:55 AM 14.0 °F 6.8 °F 73% 29.61 in 10.0 mi North - - N/A   Overcast
6:15 AM 14.0 °F 6.8 °F 73% 29.62 in 10.0 mi North - - N/A   Overcast
6:55 AM 14.0 °F 5.0 °F 67% 29.64 in 10.0 mi North - - N/A   Overcast
7:15 AM 12.2 °F 5.0 °F 73% 29.64 in 10.0 mi North - - N/A   Overcast
7:35 AM 12.2 °F 5.0 °F 73% 29.65 in 10.0 mi North - - N/A   Overcast
7:55 AM 12.2 °F 5.0 °F 73% 29.66 in 10.0 mi North - - N/A   Mostly Cloudy
8:15 AM 12.2 °F 3.2 °F 67% 29.68 in 10.0 mi North - - N/A   Mostly Cloudy
8:35 AM 12.2 °F 5.0 °F 73% 29.69 in 10.0 mi North - - N/A   Overcast
8:55 AM 12.2 °F 5.0 °F 73% 29.70 in 10.0 mi North - - N/A   Overcast
9:15 AM 12.2 °F 3.2 °F 67% 29.71 in 10.0 mi North - - N/A   Overcast
9:35 AM 12.2 °F 3.2 °F 67% 29.72 in 10.0 mi North - - N/A   Overcast
9:55 AM 12.2 °F 3.2 °F 67% 29.73 in 10.0 mi North - - N/A   Overcast
10:15 AM 14.0 °F 3.2 °F 62% 29.73 in 10.0 mi North - - N/A   Overcast
10:35 AM 14.0 °F 3.2 °F 62% 29.74 in 10.0 mi North - - N/A   Overcast
10:55 AM 14.0 °F 3.2 °F 62% 29.74 in 10.0 mi North - - N/A   Overcast
11:15 AM 14.0 °F 3.2 °F 62% 29.74 in 10.0 mi North - - N/A   Overcast
11:35 AM 14.0 °F 3.2 °F 62% 29.74 in 10.0 mi North - - N/A   Overcast
11:55 AM 15.8 °F 5.0 °F 62% 29.74 in 10.0 mi North - - N/A   Overcast
12:15 PM 15.8 °F 5.0 °F 62% 29.74 in 10.0 mi North - - N/A   Overcast
12:35 PM 15.8 °F 5.0 °F 62% 29.75 in 5.0 mi North - - N/A   Haze
12:55 PM 17.6 °F 6.8 °F 63% 29.75 in 10.0 mi North - - N/A   Overcast
1:15 PM 17.6 °F 5.0 °F 58% 29.76 in 7.0 mi North - - N/A   Overcast
1:35 PM 17.6 °F 5.0 °F 58% 29.77 in 10.0 mi North - - N/A   Overcast
1:55 PM 17.6 °F 8.6 °F 68% 29.77 in 10.0 mi North - - N/A   Overcast
2:15 PM 17.6 °F 8.6 °F 68% 29.78 in 10.0 mi North - - N/A   Overcast
2:35 PM 17.6 °F 8.6 °F 68% 29.78 in 4.0 mi North - - N/A   Haze
2:55 PM 17.6 °F 6.8 °F 63% 29.79 in 10.0 mi North - - N/A   Overcast
3:15 PM 17.6 °F 6.8 °F 63% 29.80 in 10.0 mi North - - N/A   Overcast
3:35 PM 17.6 °F 5.0 °F 58% 29.81 in 10.0 mi North - - N/A   Overcast
3:55 PM 17.6 °F 6.8 °F 63% 29.81 in 10.0 mi North - - N/A   Overcast
4:15 PM 15.8 °F 5.0 °F 62% 29.83 in 10.0 mi North - - N/A   Overcast
4:35 PM 15.8 °F 6.8 °F 68% 29.84 in 10.0 mi North - - N/A   Overcast
4:55 PM 15.8 °F 5.0 °F 62% 29.85 in 10.0 mi North - - N/A   Mostly Cloudy
5:15 PM 14.0 °F 5.0 °F 67% 29.86 in 10.0 mi North - - N/A   Mostly Cloudy
5:35 PM 14.0 °F 3.2 °F 62% 29.88 in 10.0 mi North - - N/A   Scattered Clouds
5:55 PM 14.0 °F 3.2 °F 62% 29.89 in 10.0 mi North - - N/A   Clear
6:15 PM 12.2 °F 3.2 °F 67% 29.90 in 10.0 mi North - - N/A   Clear
6:35 PM 12.2 °F 1.4 °F 62% 29.91 in 10.0 mi North - - N/A   Scattered Clouds
6:55 PM 12.2 °F 1.4 °F 62% 29.92 in 10.0 mi North - - N/A   Scattered Clouds
7:15 PM 12.2 °F 1.4 °F 62% 29.94 in 10.0 mi North - - N/A   Clear
7:35 PM 10.4 °F -0.4 °F 62% 29.95 in 10.0 mi North - - N/A   Scattered Clouds
7:55 PM 10.4 °F -0.4 °F 62% 29.96 in 10.0 mi North - - N/A   Clear
8:15 PM 10.4 °F -0.4 °F 62% 29.96 in 10.0 mi North - - N/A   Clear
8:35 PM 10.4 °F -0.4 °F 62% 29.97 in 10.0 mi North - - N/A   Clear
8:55 PM 10.4 °F -0.4 °F 62% 29.98 in 10.0 mi North - - N/A   Clear
9:15 PM 10.4 °F -0.4 °F 62% 29.99 in 10.0 mi North - - N/A   Clear
9:35 PM 8.6 °F -0.4 °F 67% 30.00 in 10.0 mi North - - N/A   Clear
9:55 PM 8.6 °F -0.4 °F 67% 30.00 in 10.0 mi North - - N/A   Clear
10:15 PM 6.8 °F -0.4 °F 72% 30.01 in 10.0 mi North - - N/A   Clear
10:35 PM 6.8 °F -0.4 °F 72% 30.01 in 10.0 mi North - - N/A   Clear
10:55 PM 6.8 °F -2.2 °F 67% 30.02 in 10.0 mi North - - N/A   Clear
11:15 PM 5.0 °F -2.2 °F 72% 30.02 in 10.0 mi North - - N/A   Mostly Cloudy
11:35 PM 5.0 °F -4.0 °F 66% 30.03 in 10.0 mi North - - N/A   Scattered Clouds
11:55 PM 5.0 °F -4.0 °F 66% 30.04 in 10.0 mi North - - N/A   Clear